Погода в Кибдо

Колумбия     5°41′30″N   76°39′25″W
темп.,
°C
ветер,
м/с
пор.,
м/с
влажн.,
%
обл.,
%
осадки,
мм/ч
давл.,
гПа
погр.,
м
28 июля, ср
ср2801:00+23ююв1199100 0.0 101224
04:00+22ю129895 0.0 101169
07:00+22юв119798 0.0 101171
10:00+29юв017039 0.0 1012769
13:00+32зсз225759 0.2 10081566
16:00+27з358481 0.8 1006233
19:00+24з269582 2.6 1008208
22:00+24ю1297100 1.3 101169
29 июля, чт
чт2901:00+23ююв1299100 2.8 101092
04:00+23ю139984 4.1 1009138
07:00+23ююв1399100 4.3 1010144
10:00+27ююз128586 0.5 1011571
13:00+30зсз226866 1.6 10091183
16:00+26з2592100 6.8 1008301
19:00+24зюз1197100 10.8 101026
22:00+23ю1298100 0.5 101254
30 июля, пт
пт3001:00+23ююв119974 0.6 101125
04:00+23ююв119978 0.1 101133
07:00+23вюв019848 0.5 101284
10:00+29ссв017194 0.0 1012798
13:00+33зсз115699 0.1 10091485
16:00+26з3787100 0.3 1007241
19:00+24зюз159585 1.1 1009134
22:00+24юв1299100 8.0 1012129
31 июля, сб
сб3101:00+23ссв119995 8.1 101232
04:00+23в119996 0.1 101165
07:00+24зсз119832 0.1 101190
10:00+28с117547 0.3 1012801
13:00+33з115482 0.4 10091630
16:00+28з267789 0.2 1007271
19:00+25з149076 1.0 1009122
22:00+24ю1196100 2.5 101228
1 августа, вс
вс101:00+24вюв1297100 4.1 101150
04:00+24ю119871 6.4 101045
07:00+24ююв019829 6.4 101377
10:00+29ююз127435 0.8 1012834
13:00+29зюз237849 3.3 1010834
16:00+27з2490100 5.3 1009438
19:00+24сз1396100 13.1 101186
22:00+23вюв1398100 9.8 101387